{"data":{"norad_id":56069,"intl_designator":"2023-043Z","name":"ONEWEB-0581","alt_names":[],"object_type":"PAYLOAD","status":"ACTIVE","operator":null,"country":"UK","launch_date":"2023-03-26","launch_site_code":"SRILR","launch_vehicle":null,"mission":null,"orbit_class":"UNKNOWN","rcs_meters":null,"size_class":null,"mass_kg":null,"dimensions":null,"purposes":["comms"],"wikipedia_slug":null,"has_3d_model":false,"image_url":null,"decayed_at":null,"tle_current":{"epoch":"2026-09-20T03:30:55.183392Z","epoch_age_seconds":48796,"freshness":"FRESH","line1":"1 56069U 23043Z   26263.14647203 -.00000030  00000+0 -11247-3 0  9996","line2":"2 56069  87.9155 209.9273 0002472  81.7243 278.4168 13.16594125171456","mean_motion":13.16594125,"eccentricity":0.0002472,"inclination_deg":87.9155,"raan_deg":209.9273,"arg_perigee_deg":81.7243,"mean_anomaly_deg":278.4168,"bstar":-0.00011247,"rev_number":17145,"period_min":109.37311451242,"perigee_km":1195.8844124203,"apogee_km":1199.6299344997,"semimajor_km":7575.89417346,"source":"CELESTRAK","updated_at":"2026-09-20T09:00:44.791378Z"}}}